EW5954 Weather Reports


Display with metric or nautical units.
time (UTC)temp
F
wind
direction
speed
MPH
gust
MPH
rain 1hr
in
rain 24hr
in
rain mn
in
humidity
%
barometer
mb
20260901231242 74 301 2.0 3.0 0.00 0.00 0.00 88
20260901230738 74 276 1.0 2.0 0.00 0.00 0.00 88
20260901230237 74 289 1.0 3.0 0.00 0.00 0.00 88
20260901225733 75 329 1.0 3.0 0.00 0.00 0.00 87
20260901225227 75 329 1.0 2.0 0.00 0.00 0.00 87
20260901224723 75 298 1.0 2.0 0.00 0.00 0.00 87
20260901224219 75 268 2.0 2.0 0.00 0.00 0.00 87
20260901223715 75 283 1.0 2.0 0.00 0.00 0.00 86
20260901223209 75 273 1.0 2.0 0.00 0.00 0.00 86
20260901222706 76 342 0.0 3.0 0.00 0.00 0.00 85
20260901222201 76 314 1.0 2.0 0.00 0.00 0.00 85
20260901221657 76 340 1.0 2.0 0.00 0.00 0.00 85
20260901221153 76 224 2.0 5.0 0.00 0.00 0.00 86
20260901220652 76 304 1.0 5.0 0.00 0.00 0.00 85
20260901220152 76 228 3.0 6.0 0.00 0.00 0.00 85
20260901215650 76 255 2.0 7.0 0.00 0.00 0.00 85
20260901215145 76 326 2.0 6.0 0.00 0.00 0.00 85
20260901214642 77 250 4.0 9.0 0.00 0.00 0.00 84
20260901214136 78 231 5.0 7.0 0.00 0.00 0.00 82
20260901213631 78 285 0.0 3.0 0.00 0.00 0.00 83
20260901213126 78 341 2.0 6.0 0.00 0.00 0.00 82
20260901212625 78 192 4.0 5.0 0.00 0.00 0.00 81
20260901212121 79 343 2.0 7.0 0.00 0.00 0.00 81
20260901211616 79 203 4.0 7.0 0.00 0.00 0.00 80
20260901211113 80 242 3.0 5.0 0.00 0.00 0.00 79
20260901210608 80 199 3.0 6.0 0.00 0.00 0.00 78
20260901210104 81 339 2.0 5.0 0.00 0.00 0.00 78
20260901205554 82 282 3.0 7.0 0.00 0.00 0.00 77
20260901205053 82 263 3.0 8.0 0.00 0.00 0.00 78
20260901204550 84 0 2.0 7.0 0.00 0.00 0.00 76
20260901204045 83 213 3.0 6.0 0.00 0.00 0.00 76
20260901203539 84 267 2.0 6.0 0.00 0.00 0.00 75
20260901203034 84 257 3.0 6.0 0.00 0.00 0.00 75
20260901202529 84 342 1.0 3.0 0.00 0.00 0.00 75
20260901202025 84 336 3.0 5.0 0.00 0.00 0.00 76
20260901201520 84 329 3.0 7.0 0.00 0.00 0.00 76
20260901201014 84 330 3.0 6.0 0.00 0.00 0.00 76
20260901200508 83 333 1.0 6.0 0.00 0.00 0.00 76
20260901200008 84 265 4.0 7.0 0.00 0.00 0.00 76
20260901195506 84 194 2.0 8.0 0.00 0.00 0.00 76
20260901195006 84 208 3.0 6.0 0.00 0.00 0.00 76
20260901194501 85 196 2.0 6.0 0.00 0.00 0.00 75
20260901193957 85 284 3.0 8.0 0.00 0.00 0.00 75
20260901193456 85 249 3.0 5.0 0.00 0.00 0.00 74
20260901192956 85 321 2.0 5.0 0.00 0.00 0.00 75
20260901192452 86 267 3.0 5.0 0.00 0.00 0.00 73
20260901191948 86 261 2.0 3.0 0.00 0.00 0.00 73
20260901191446 86 324 1.0 3.0 0.00 0.00 0.00 73
20260901190939 85 345 1.0 3.0 0.00 0.00 0.00 73
20260901190434 85 283 1.0 3.0 0.00 0.00 0.00 75
20260901185932 85 238 3.0 5.0 0.00 0.00 0.00 74
20260901185432 84 290 2.0 3.0 0.00 0.00 0.00 76
20260901184926 85 276 4.0 7.0 0.00 0.00 0.00 74
20260901184421 84 341 1.0 5.0 0.00 0.00 0.00 76
20260901183917 84 347 0.0 3.0 0.00 0.00 0.00 78
20260901183416 83 265 3.0 5.0 0.00 0.00 0.00 78
20260901182912 82 278 3.0 5.0 0.00 0.00 0.00 78
20260901182407 82 264 2.0 5.0 0.00 0.00 0.00 80
20260901181902 82 313 1.0 5.0 0.00 0.00 0.00 79
20260901181357 83 294 3.0 5.0 0.00 0.00 0.00 78
20260901180856 82 177 1.0 5.0 0.00 0.00 0.00 78
20260901180355 82 224 3.0 5.0 0.00 0.00 0.00 78
20260901175853 82 243 3.0 6.0 0.00 0.00 0.00 79
20260901175348 81 198 4.0 6.0 0.00 0.00 0.00 79
20260901174844 82 217 5.0 8.0 0.00 0.00 0.00 79
20260901174339 82 245 4.0 7.0 0.00 0.00 0.00 80
20260901173835 81 248 4.0 6.0 0.00 0.00 0.00 80
20260901173329 81 321 3.0 7.0 0.00 0.00 0.00 81
20260901172826 84 261 4.0 6.0 0.00 0.00 0.00 77
20260901172325 85 291 0.0 2.0 0.00 0.00 0.00 76
20260901171823 85 301 1.0 2.0 0.00 0.00 0.00 75
20260901171323 86 40 0.0 1.0 0.00 0.00 0.00 72
20260901170822 86 351 0.0 1.0 0.00 0.00 0.00 73
20260901170317 85 353 0.0 0.0 0.00 0.00 0.00 74
20260901165816 85 352 0.0 1.0 0.00 0.00 0.00 74
20260901165310 85 355 0.0 1.0 0.00 0.00 0.00 73
20260901164807 85 359 0.0 0.0 0.00 0.00 0.00 73
20260901164302 85 349 0.0 2.0 0.00 0.00 0.00 74
20260901163756 85 23 1.0 2.0 0.00 0.00 0.00 73
20260901163250 85 349 0.0 1.0 0.00 0.00 0.00 74
20260901162745 84 323 0.0 0.0 0.00 0.00 0.00 76
20260901162245 84 342 0.0 1.0 0.00 0.00 0.00 75
20260901161743 84 17 0.0 2.0 0.00 0.00 0.00 75
20260901161238 84 351 0.0 0.0 0.00 0.00 0.00 75
20260901160734 85 349 0.0 1.0 0.00 0.00 0.00 74
20260901160230 85 343 0.0 2.0 0.00 0.00 0.00 75
20260901155729 85 352 1.0 2.0 0.00 0.00 0.00 74
20260901155224 85 8 0.0 2.0 0.00 0.00 0.00 74
20260901154719 86 352 1.0 2.0 0.00 0.00 0.00 73
20260901154214 87 338 0.0 1.0 0.00 0.00 0.00 72
20260901153710 86 331 0.0 0.0 0.00 0.00 0.00 74
20260901153204 85 36 0.0 3.0 0.00 0.00 0.00 73
20260901152658 85 348 0.0 1.0 0.00 0.00 0.00 72
20260901152157 85 320 1.0 1.0 0.00 0.00 0.00 71
20260901151652 84 344 0.0 2.0 0.00 0.00 0.00 75
20260901151151 83 329 0.0 2.0 0.00 0.00 0.00 76
20260901150646 82 335 0.0 3.0 0.00 0.00 0.00 76
20260901150144 83 330 2.0 3.0 0.00 0.00 0.00 74
20260901145642 83 349 1.0 2.0 0.00 0.00 0.00 75
20260901145141 82 331 0.0 2.0 0.00 0.00 0.00 79
20260901144637 82 311 1.0 1.0 0.00 0.00 0.00 76
20260901144132 83 0 1.0 2.0 0.00 0.00 0.00 75
20260901143627 83 352 0.0 0.0 0.00 0.00 0.00 75
20260901143124 83 343 0.0 1.0 0.00 0.00 0.00 77
20260901142619 83 316 0.0 0.0 0.00 0.00 0.00 77
20260901142113 82 344 0.0 1.0 0.00 0.00 0.00 77
20260901141608 83 282 1.0 1.0 0.00 0.00 0.00 77
20260901141103 81 316 0.0 0.0 0.00 0.00 0.00 78
20260901140602 80 354 0.0 1.0 0.00 0.00 0.00 79
20260901135601 80 328 0.0 2.0 0.00 0.00 0.00 81
20260901135056 79 353 0.0 0.0 0.00 0.00 0.00 82
20260901134552 79 349 0.0 1.0 0.00 0.00 0.00 82
20260901134047 79 359 0.0 1.0 0.00 0.00 0.00 83
20260901133546 78 22 0.0 2.0 0.00 0.00 0.00 84
20260901133044 78 222 0.0 1.0 0.00 0.00 0.00 82
20260901132539 78 344 0.0 0.0 0.00 0.00 0.00 84
20260901132039 77 336 0.0 0.0 0.00 0.00 0.00 85
20260901131538 77 319 1.0 1.0 0.00 0.00 0.00 85
20260901131029 77 353 0.0 1.0 0.00 0.00 0.00 86
20260901130528 77 341 0.0 0.0 0.00 0.00 0.00 87
20260901130027 76 347 0.0 2.0 0.00 0.00 0.00 88
20260901125526 76 1 0.0 1.0 0.00 0.00 0.00 87
20260901125021 76 345 0.0 1.0 0.00 0.00 0.00 87
20260901124516 76 338 0.0 1.0 0.00 0.00 0.00 88
20260901124016 75 344 0.0 1.0 0.00 0.00 0.00 89
20260901123510 74 351 0.0 1.0 0.00 0.00 0.00 90
20260901123009 74 359 0.0 1.0 0.00 0.00 0.00 90
20260901122503 74 347 0.0 0.0 0.00 0.00 0.00 91
20260901122002 73 1 0.0 0.0 0.00 0.00 0.00 91
20260901121457 73 352 0.0 1.0 0.00 0.00 0.00 92
20260901120952 73 13 0.0 1.0 0.00 0.00 0.00 92
20260901120447 73 12 0.0 0.0 0.00 0.00 0.00 93
20260901115942 72 347 0.0 0.0 0.00 0.00 0.00 94
20260901115443 72 347 0.0 0.0 0.00 0.00 0.00 95
20260901114940 71 13 0.0 2.0 0.00 0.00 0.00 97
20260901114435 70 2 0.0 1.0 0.00 0.00 0.00 98
20260901113933 70 359 1.0 2.0 0.00 0.00 0.00 98
20260901113432 70 24 0.0 1.0 0.00 0.00 0.00 99
20260901112928 69 14 0.0 0.0 0.00 0.00 0.00 99
20260901112423 69 10 0.0 1.0 0.00 0.00 0.00 99
20260901111918 69 4 0.0 0.0 0.00 0.00 0.00 99
20260901111415 69 1 0.0 2.0 0.00 0.00 0.00 99
20260901110915 69 347 0.0 2.0 0.00 0.00 0.00 99
20260901110411 69 29 1.0 2.0 0.00 0.00 0.00 99
20260901105907 69 22 1.0 2.0 0.00 0.00 0.00 99
20260901105402 69 15 0.0 0.0 0.00 0.00 0.00 99
20260901104858 69 8 0.0 1.0 0.00 0.00 0.00 99
20260901104353 69 357 1.0 2.0 0.00 0.00 0.00 99
20260901103849 69 357 0.0 1.0 0.00 0.00 0.00 99
20260901103348 69 358 0.0 0.0 0.00 0.00 0.00 99
20260901102843 69 9 0.0 0.0 0.00 0.00 0.00 99
20260901102337 69 6 0.0 1.0 0.00 0.00 0.00 99
20260901101834 69 343 0.0 0.0 0.00 0.00 0.00 99
20260901101333 69 355 0.0 1.0 0.00 0.00 0.00 99
20260901100833 69 349 0.0 0.0 0.00 0.00 0.00 99
20260901100328 69 352 0.0 0.0 0.00 0.00 0.00 99
20260901095827 69 349 0.0 0.0 0.00 0.00 0.00 99
20260901095324 69 347 0.0 0.0 0.00 0.00 0.00 99
20260901094818 69 338 0.0 0.0 0.00 0.00 0.00 99
20260901094313 69 338 0.0 0.0 0.00 0.00 0.00 99
20260901093808 69 348 0.0 0.0 0.00 0.00 0.00 99
20260901093307 69 347 0.0 0.0 0.00 0.00 0.00 99
20260901092804 69 349 0.0 0.0 0.00 0.00 0.00 99
20260901092259 69 344 0.0 0.0 0.00 0.00 0.00 99
20260901091755 69 346 0.0 0.0 0.00 0.00 0.00 99
20260901091249 69 355 0.0 0.0 0.00 0.00 0.00 99
20260901090744 69 347 0.0 0.0 0.00 0.00 0.00 99
20260901090239 69 352 0.0 0.0 0.00 0.00 0.00 99
20260901085735 69 355 0.0 0.0 0.00 0.00 0.00 99
20260901085230 69 350 0.0 0.0 0.00 0.00 0.00 99
20260901084726 69 352 0.0 0.0 0.00 0.00 0.00 99
20260901084223 69 355 0.0 0.0 0.00 0.00 0.00 99
20260901083717 69 356 0.0 0.0 0.00 0.00 0.00 99
20260901083217 69 347 0.0 0.0 0.00 0.00 0.00 99
20260901082715 69 0 1.0 1.0 0.00 0.00 0.00 99
20260901082211 69 351 0.0 0.0 0.00 0.00 0.00 99
20260901081707 69 351 0.0 0.0 0.00 0.00 0.00 99
20260901081206 69 319 0.0 0.0 0.00 0.00 0.00 99
20260901080701 69 356 0.0 0.0 0.00 0.00 0.00 99
20260901080200 69 353 0.0 0.0 0.00 0.00 0.00 99
20260901075655 69 353 0.0 0.0 0.00 0.00 0.00 99
20260901075154 69 345 0.0 0.0 0.00 0.00 0.00 99
20260901074654 69 6 0.0 0.0 0.00 0.00 0.00 99
20260901074149 69 354 0.0 0.0 0.00 0.00 0.00 99
20260901073645 69 329 0.0 1.0 0.00 0.00 0.00 99
20260901073141 69 357 0.0 0.0 0.00 0.00 0.00 99
20260901072636 69 7 0.0 0.0 0.00 0.00 0.00 99
20260901072131 69 357 0.0 0.0 0.00 0.00 0.00 99
20260901071631 69 357 0.0 0.0 0.00 0.00 0.00 99
20260901071125 69 353 0.0 0.0 0.00 0.00 0.00 99
20260901070619 69 357 0.0 0.0 0.00 0.00 0.00 99
20260901070114 69 347 0.0 0.0 0.00 0.00 0.00 99
20260901065608 69 330 0.0 0.0 0.00 0.00 0.00 99
20260901065103 69 351 0.0 0.0 0.00 0.00 0.00 99
20260901064601 69 347 0.0 0.0 0.00 0.00 0.00 99
20260901064056 69 328 0.0 0.0 0.00 0.00 0.00 99
20260901063553 69 329 0.0 0.0 0.00 0.00 0.00 99
20260901063049 69 338 0.0 0.0 0.00 0.00 0.00 99
20260901062544 69 338 0.0 0.0 0.00 0.00 0.00 99
20260901062040 69 329 0.0 0.0 0.00 0.00 0.00 99
20260901061536 69 331 0.0 1.0 0.00 0.00 0.00 99
20260901061031 69 332 0.0 0.0 0.00 0.00 0.00 99
20260901060525 68 297 0.0 0.0 0.00 0.00 0.00 99
20260901060020 68 348 0.0 1.0 0.00 0.00 0.00 99
20260901055515 69 344 0.0 1.0 0.00 0.00 0.00 99
20260901055012 69 326 0.0 0.0 0.00 0.00 0.00 99
20260901054509 69 338 0.0 0.0 0.00 0.00 0.00 99
20260901054005 69 338 0.0 1.0 0.00 0.00 0.00 99
20260901053500 69 330 0.0 1.0 0.00 0.00 0.00 99
20260901052956 69 342 0.0 1.0 0.00 0.00 0.00 99
20260901052451 69 333 0.0 1.0 0.00 0.00 0.00 99
20260901051944 69 333 0.0 0.0 0.00 0.00 0.00 99
20260901051439 69 335 0.0 0.0 0.00 0.00 0.00 99
20260901050938 69 331 0.0 2.0 0.00 0.00 0.00 99
20260901050434 69 300 0.0 0.0 0.00 0.00 0.00 99
20260901045929 69 338 0.0 0.0 0.00 0.00 0.00 99
20260901045424 69 328 0.0 0.0 0.00 0.00 0.00 99
20260901044919 69 331 0.0 1.0 0.00 0.00 0.00 99
20260901044415 69 315 2.0 2.0 0.00 0.00 0.00 99
20260901043910 69 299 0.0 2.0 0.00 0.00 0.00 99
20260901043406 69 336 0.0 1.0 0.00 0.00 0.00 99
20260901042901 69 328 0.0 0.0 0.00 0.00 0.00 99
20260901042355 69 328 0.0 0.0 0.00 0.00 0.00 99
20260901041851 69 315 0.0 0.0 0.00 0.00 0.00 99
20260901041345 69 334 0.0 1.0 0.00 0.00 0.00 99
20260901040839 69 336 0.0 2.0 0.00 0.00 0.00 99
20260901040339 69 324 0.0 1.0 0.00 0.00 0.00 99
20260901035839 69 340 0.0 0.0 0.00 0.16 0.16 99
20260901035337 69 302 0.0 0.0 0.00 0.16 0.16 99
20260901034836 69 335 0.0 0.0 0.00 0.16 0.16 99
20260901034331 69 342 0.0 0.0 0.00 0.16 0.16 99
20260901033831 69 340 0.0 0.0 0.00 0.16 0.16 99
20260901033330 69 325 0.0 0.0 0.00 0.16 0.16 99
20260901032829 69 336 0.0 0.0 0.00 0.16 0.16 99
20260901032329 69 337 0.0 0.0 0.00 0.16 0.16 99
20260901031824 69 338 0.0 1.0 0.00 0.16 0.16 99
20260901031320 69 312 0.0 1.0 0.00 0.16 0.16 99
20260901030819 69 313 0.0 1.0 0.00 0.16 0.16 99
20260901030315 69 330 0.0 1.0 0.00 0.16 0.16 99
20260901025814 69 284 1.0 1.0 0.00 0.16 0.16 99
20260901025309 69 296 1.0 2.0 0.00 0.16 0.16 99
20260901024804 69 333 1.0 2.0 0.00 0.16 0.16 99
20260901024303 69 332 0.0 2.0 0.00 0.16 0.16 99
20260901023801 69 277 1.0 2.0 0.00 0.16 0.16 99
20260901023256 69 297 0.0 0.0 0.00 0.16 0.16 99
20260901022751 69 284 0.0 0.0 0.00 0.16 0.16 99
20260901022247 69 327 0.0 0.0 0.00 0.16 0.16 99
20260901021742 69 279 0.0 1.0 0.00 0.16 0.16 99
20260901021238 69 349 0.0 1.0 0.00 0.16 0.16 99
20260901020733 69 330 1.0 1.0 0.00 0.16 0.16 99
20260901020228 69 208 1.0 5.0 0.00 0.16 0.16 99
20260901015723 69 218 1.0 2.0 0.00 0.16 0.16 99
20260901015218 69 250 1.0 1.0 0.00 0.16 0.16 99
20260901014713 69 276 1.0 1.0 0.00 0.16 0.16 99
20260901014209 69 329 0.0 1.0 0.00 0.16 0.16 99
20260901013704 69 310 1.0 2.0 0.00 0.16 0.16 99
20260901013200 69 270 0.0 0.0 0.00 0.16 0.16 99
20260901012655 69 328 0.0 1.0 0.00 0.16 0.16 99
20260901012150 69 325 0.0 0.0 0.00 0.16 0.16 99
20260901011646 69 344 0.0 2.0 0.00 0.16 0.16 99
20260901011144 69 261 1.0 2.0 0.00 0.16 0.16 99
20260901010639 69 299 0.0 2.0 0.00 0.16 0.16 99
20260901010138 69 325 0.0 2.0 0.00 0.16 0.16 99
20260901005632 69 292 1.0 3.0 0.00 0.16 0.16 99
20260901005128 69 303 0.0 2.0 0.00 0.16 0.16 99
20260901004627 69 271 0.0 1.0 0.00 0.16 0.16 99
20260901004122 69 238 2.0 3.0 0.00 0.16 0.16 99
20260901003617 69 341 0.0 2.0 0.00 0.16 0.16 99
20260901003115 69 325 0.0 1.0 0.00 0.16 0.16 99
20260901002610 69 232 3.0 3.0 0.00 0.16 0.16 99
20260901002105 69 278 1.0 2.0 0.00 0.16 0.16 99
20260901001600 69 325 1.0 2.0 0.00 0.16 0.16 99
20260901001055 69 281 2.0 3.0 0.00 0.16 0.16 99
20260901000549 69 307 0.0 3.0 0.00 0.16 0.16 99
20260901000045 69 251 1.0 3.0 0.00 0.16 0.16 99
20260831235538 69 272 1.0 2.0 0.00 0.16 0.16 99
20260831235034 69 336 1.0 2.0 0.00 0.16 0.16 99
20260831234528 70 268 2.0 3.0 0.00 0.16 0.16 99
20260831234025 70 292 0.0 3.0 0.00 0.16 0.16 99
20260831233519 70 248 2.0 2.0 0.00 0.16 0.16 98
20260831233015 70 323 0.0 2.0 0.00 0.16 0.16 98
20260831232510 70 219 3.0 3.0 0.00 0.16 0.16 98
20260831232006 70 271 3.0 5.0 0.00 0.16 0.16 98